Location: Poughquag
(41.6090°N, 73.6820°W)
Time: 15:17:27
(UTC-04:00)

CUBESAT XI-V - Pass Details

Date: 26 July 2025
Orbit: 644 x 662 km, 98.3° (Epoch: 12 May)

Event Time Altitude Azimuth Distance (km) Brightness Sun altitude
Exits shadow 02:20:23 - 110° (ESE) 2,196 ? -26.3°
Reaches altitude 10° 02:20:48 10° 107° (ESE) 2,077 ? -26.3°
Drops below altitude 10° 02:26:54 10° 22° (NNE) 2,078 ? -25.9°
Enters shadow 03:29:29 -55° 168° (SSE) 11,256 ? -20.1°
Maximum altitude 04:00:15 47° 260° (W) 878 ? -16.3°
